Weather in Komsomolskiy

Russia / Chukotka Autonomous Okrug     69°07′56″N   172°44′45″E
temp.,
°C
wind,
m/s
gust,
m/s
humid.,
%
clouds,
%
prec.,
mm/h
press.,
hPa
HPBL,
m
23 april, fri
fri2300:00−10s22620 0.0 102011
03:00−11s2256100 0.0 101911
06:00−9ssw1157100 0.0 101810
09:00−5sw116756 0.0 101718
12:00−4sw11690 0.0 101723
15:00−4wsw21761 0.0 101815
18:00−8wsw01752 0.0 101910
21:00−12nne116618 0.0 102010
24 april, sat
sat2400:00−13ne226833 0.0 10219
03:00−8ne239696 0.0 102078
06:00−7ne339692 0.1 1019106
09:00−7ne229650 0.0 101887
12:00−6ene229370 0.0 1017160
15:00−5ene2292100 0.0 1016118
18:00−7ne229649 0.0 101511
21:00−11ene2198100 0.0 101410
25 april, sun
sun2500:00−9ene1194100 0.0 101311
03:00−8ene1187100 0.0 101110
06:00−6ene1182100 0.0 101010
09:00−1ssw2270100 0.1 100952
12:00−2sw1288100 0.6 1009109
15:000sse119896 0.8 100886
18:00−2s2295100 0.8 100815
21:00−6ssw229657 0.0 101015
26 april, mon
mon2600:00−8ssw229987 0.1 101117
03:00−6ssw229899 0.1 101269
06:00−5s119691 0.2 101259
09:00−4sse119576 0.1 101391
12:00−3se119171 0.1 1012221
15:00−2sse128887 0.0 1012268
18:00−3ese1194100 0.0 101210
21:00−5ese119694 0.0 101310
27 april, tue
tue2700:00−6s119898 0.1 101310
03:00−5ssw129897 0.0 101422
06:00−4sw2297100 0.1 101470
09:00−4sw119498 0.1 1015141
12:00−3ssw1189100 0.1 1015318
15:00−2sw119193 0.2 1016278
18:00−3sw1196100 0.4 101662
21:00−7w0099100 0.1 101810